Location: Strawberry
(45.6646°N, 111.9596°W)
Time: 12:44:46
(UTC+00:00)

Explorer 11/Cluster Stage 4 - All Passes

Search period start: 05 October 2022 00:00
Search period end: 15 October 2022 00:00
Orbit: 466 x 1249 km, 28.8° (Epoch: 04 October)

Date Brightness Start Highest point End Pass type
(mag) Time Alt. Az. Time Alt. Az. Time Alt. Az.
05 Oct - 16:51:50 10° S 16:54:35 12° SSE 16:57:19 10° SE daylight
05 Oct - 18:36:54 10° SW 18:42:24 20° S 18:47:38 10° SE daylight
05 Oct - 20:24:55 10° SW 20:30:17 20° S 20:35:13 10° SE daylight
05 Oct - 22:15:23 10° SW 22:17:49 12° SSW 22:20:08 10° S daylight
06 Oct - 16:38:21 10° S 16:41:49 13° SSE 16:45:18 10° SE daylight
06 Oct - 18:23:57 10° SW 18:29:39 21° S 18:35:09 10° SE daylight
06 Oct - 20:12:06 10° SW 20:17:35 20° S 20:22:40 10° SE daylight
06 Oct - 22:02:53 10° SW 22:05:07 12° SSW 22:07:17 10° S daylight
07 Oct - 16:25:06 10° S 16:29:03 14° SSE 16:33:03 10° SE daylight
07 Oct - 18:11:03 10° SW 18:16:54 22° S 18:22:35 10° SE daylight
07 Oct - 19:59:18 10° SW 20:04:50 20° S 20:10:02 10° SSE daylight
07 Oct - 21:50:32 10° SW 21:52:24 11° SSW 21:54:12 10° SSW daylight
08 Oct - 16:12:00 10° SSW 16:16:16 15° SSE 16:20:38 10° SE daylight
08 Oct - 17:58:14 10° SW 18:04:08 22° S 18:09:59 10° SE daylight
08 Oct - 19:46:34 10° SW 19:52:05 20° SSW 19:57:20 10° SSE daylight
08 Oct - 21:38:33 10° SW 21:39:39 10° SSW 21:40:45 10° SSW daylight
09 Oct - 15:59:00 10° SSW 16:03:30 16° SSE 16:08:08 10° SE daylight
09 Oct - 17:45:26 10° SW 17:51:22 23° S 17:57:19 10° SE daylight
09 Oct - 19:33:52 10° SW 19:39:19 20° SSW 19:44:34 10° SSE daylight
10 Oct - 15:46:07 10° SSW 15:50:43 17° SSE 15:55:31 10° SE daylight
10 Oct - 17:32:42 10° SW 17:38:35 23° S 17:44:35 10° SE daylight
10 Oct - 19:21:14 10° SW 19:26:33 19° SSW 19:31:43 10° SSE daylight
11 Oct - 15:33:19 10° SSW 15:37:56 18° SSE 15:42:51 10° SE daylight
11 Oct - 17:20:01 10° SW 17:25:47 23° S 17:31:47 10° SE daylight
11 Oct - 19:08:39 10° SW 19:13:44 18° SSW 19:18:47 10° SSE daylight
12 Oct - 15:20:35 10° SSW 15:25:10 18° SSE 15:30:07 10° SE daylight
12 Oct - 17:07:24 10° SW 17:13:01 22° S 17:18:56 10° SE daylight
12 Oct - 18:56:09 10° SW 19:00:57 17° SSW 19:05:46 10° SSE daylight
13 Oct - 15:07:55 10° SSW 15:12:26 18° SSE 15:17:20 10° SE daylight
13 Oct - 16:54:50 10° SW 17:00:16 22° S 17:06:01 10° SE daylight
13 Oct - 18:43:45 10° SW 18:48:09 16° SSW 18:52:38 10° SSE daylight
14 Oct - 14:55:19 10° SSW 14:59:41 18° SSE 15:04:29 10° SE daylight
14 Oct - 16:42:19 10° SW 16:47:30 21° S 16:53:03 10° SE daylight
14 Oct - 18:31:27 10° SW 18:35:21 14° SSW 18:39:22 10° S daylight
